www.pogodaiklimat.ru

Погода и климат >> Архив погоды >> Индонезия >> Паоанкарая


ПОГОДА в Паоанкарая

  • Прогноз погоды в Паоанкарая
  • Монитор погоды в Паоанкарая

АРХИВ ПОГОДЫ в Паоанкарая

Время (UTC), дата Ветер
(напр.,м/с)
 
Видим.   Явления Облачность Т
(С)
Тd
(С)
f
(%)
Тe
(С)
Тes
(С)
Комфортность P
(гПа)
Po
(гПа)
Тmin
(С)
Tmax
(С)
R
(мм)
R24
(мм)
S
(см)
00 9.09 Ю 3 1800 м дым 4/3 360 м
[Sc As trans Ci fib]
+25.4 +23.5 89 +34 +36 очень
душно
1014.9 1011.7 +23.4
03 9.09 В 2 2300 м дым 4/3 300 м
[Sc As trans Ci fib]
+31.4 +23.6 63 +42 +55 опасность
перегрева
1014.0 1010.8
06 9.09 ЮЗ 4 4000 м дым {туман} 5/4 360 м
[Sc]
+33.8 +21.3 48 +41 +49 опасность
перегрева
1011.2 1008.1
09 9.09 Ю 3 5000 м 6/6 360 м
[Sc]
+33.3 +21.2 49 +41 +42 опасность
перегрева
1010.2 1007.0
12 9.09 Ю 5 3500 м дым {туман} 6/5 270 м
[Sc As trans Ci fib]
+28.2 +22.2 70 +37 +37 очень
душно
1011.8 1008.7 +34.6
15 9.09 Ю 3 5000 м дым {туман} 6/5 300 м
[Sc As trans Ci fib]
+25.0 +21.0 78 +31 +31 очень
душно
1014.1 1011.0
18 9.09 Ю 3 5000 м дым {туман} 6/5 300 м
[Sc As trans Ci fib]
+24.0 +21.9 88 +31 +31 очень
душно
1013.5 1010.5
21 9.09 Ю 3 2000 м дым {туман} 6/5 330 м
[Sc As trans Ci fib]
+22.2 +20.9 92 +29 +29 очень
душно
1013.2 1010.1
00 10.09 Ю 2 1700 м дым {туман} 6/5 330 м
[Sc As trans Ci fib]
+23.6 +22.0 91 +30 +32 очень
душно
1014.8 1011.1 +21.8
03 10.09 СВ 1 1000 м дым {туман} ?/? +30.1 +20.5 56 +37 +37 очень
душно
1014.7 1011.6
06 10.09 СВ 2 2100 м дым {туман} ?/? +33.2 +21.7 51 +41 +41 опасность
перегрева
1011.9 1008.7
09 10.09 ЮЗ 2 2600 м дым {туман} ?/? +32.7 +20.5 49 +40 +40 очень
душно
1011.3 1008.2
12 10.09 З 2 3000 м дым {туман} ?/? +29.2 +23.5 71 +40 +40 очень
душно
1013.2 1010.0 +33.4
15 10.09 Ю 2 3500 м дым {туман} ?/? +25.9 +23.7 88 +35 +35 очень
душно
1015.2 1012.0
18 10.09 ЮЗ 2 3000 м дым {туман} ?/? +24.5 +23.3 93 +33 +33 очень
душно
1014.9 1011.7
21 10.09 ЮЗ 2 2000 м дым {туман} ?/? +23.8 +22.5 92 +31 +31 очень
душно
1013.2 1010.0
00 11.09 Ю 2 600 м дым {туман} 3/3 360 м
[Sc As trans Ci fib]
+23.8 +20.5 82 +30 +32 очень
душно
1016.3 1012.6 +21.8
03 11.09 ЮВ 3 1500 м дым {туман} ?/? +31.2 +18.3 46 +36 +36 очень
душно
1016.0 1012.3
06 11.09 ЮЗ 4 1700 м дым {туман} ?/? +33.1 +15.3 34 +35 +35 душно 1012.7 1009.6
09 11.09 ЮЗ 3 3500 м дым {туман} ?/? +33.1 +17.1 38 +36 +36 очень
душно
1011.0 1007.9
12 11.09 ЮЗ 3 2700 м ?/? +27.0 +23.4 81 +37 +37 очень
душно
1013.8 1010.7 +34.1
15 11.09 Ю 3 4500 м дым {туман} ?/? +24.6 +23.1 91 +33 +33 очень
душно
1015.0 1012.0
18 11.09 Ю 3 4500 м дым {туман} ?/? +24.6 +23.1 91 +33 +33 очень
душно
1015.0 1012.0
21 11.09 Ю 3 2600 м дым {туман} ?/? +22.4 +21.7 96 +30 +30 очень
душно
1014.5 1011.4
00 12.09 Ю 5 600 м дым {туман} ?/? +23.4 +21.4 89 +32 +32 очень
душно
1016.4 1013.3 +21.8
03 12.09 Ю 4 1200 м дым {туман} ?/? +30.1 +19.1 52 +36 +36 очень
душно
1016.1 1012.9
06 12.09 Ю 4 5000 м дым {туман} 5/4 360 м
[Sc As trans Ci fib]
+32.9 +18.5 43 +38 +44 очень
душно
1012.3 1009.2
09 12.09 Ю 4 3000 м дым {туман} ?/? +31.0 +19.8 51 +37 +37 очень
душно
1011.4 1008.4
12 12.09 ЮЗ 4 3000 м дым {туман} ?/? +26.5 +20.3 69 +33 +33 очень
душно
1013.7 1010.5 +32.9
15 12.09 Ю 4 3000 м дым {туман} ?/? +24.5 +21.5 83 +31 +31 очень
душно
1014.9 1011.7
18 12.09 Ю 3 3000 м дым {туман} ?/? +23.5 +21.9 91 +30 +30 очень
душно
1015.1 1011.9
21 12.09 Ю 2 1500 м дым {туман} ?/? +22.9 +21.9 94 +31 +31 очень
душно
1013.7 1010.5
00 13.09 Ю 3 1000 м дым {туман} ?/? +24.0 +21.4 85 +30 +30 очень
душно
1015.4 1012.3 +21.6
03 13.09 Ю 3 1500 м дым {туман} ?/? +29.2 +19.2 55 +35 +35 очень
душно
1015.2 1012.2
06 13.09 ЮЗ 5 4000 м дым {туман} 6/4 360 м
[Sc As trans Ci fib]
+33.2 +14.9 33 +35 +40 душно 1012.4 1008.7
09 13.09 Ю 4 4000 м дым 6/4 360 м
[Sc As trans Ci fib]
+31.6 +18.3 45 +36 +37 очень
душно
1011.7 1008.0
12 13.09 Ю 5 6000 м 4/3 360 м
[Sc As trans Ci fib]
+26.3 +21.8 76 +34 +34 очень
душно
1013.6 1009.9 +34.0
15 13.09 Ю 2 5000 м мгла 4/1 360 м
[Sc As trans Ci fib]
+23.8 +22.7 94 +31 +31 очень
душно
1014.6 1010.9
18 13.09 Ю 2 3000 м дым {туман} ?/? +22.3 +21.0 92 +29 +29 очень
душно
1013.1 1009.4
21 13.09 Ю 2 1500 м дым {туман} ?/? +22.7 +22.1 96 +31 +31 очень
душно
1013.8 1010.0
00 14.09 ЮЗ 2 900 м дым {туман} ?/? +24.1 +22.8 92 +32 +32 очень
душно
1016.1 1012.9 +22.3
03 14.09 В 2 600 м дым {туман} ?/? +29.2 +21.9 65 +38 +38 очень
душно
1015.1 1012.0
06 14.09 ЮЗ 3 4000 м дым {туман} 4/3 400 м
[Sc]
+33.3 +16.8 37 +36 +47 очень
душно
1012.2 1008.5
09 14.09 ЮЗ 3 3000 м дым {туман} 4/3 400 м
[Sc]
+32.3 +17.7 42 +36 +38 очень
душно
1011.3 1008.0
12 14.09 ЮЗ 3 4000 м дым {туман} 4/4 400 м
[Sc]
+26.5 +21.1 72 +33 +33 очень
душно
1012.8 1009.1 +33.6
15 14.09 ЮЗ 2 3500 м дым {туман} 4/4 400 м
[Sc]
+24.4 +23.0 92 +32 +32 очень
душно
1013.8 1010.1
18 14.09 ЮЗ 2 3000 м дым {туман} 4/4 400 м
[Sc]
+23.5 +22.5 94 +31 +31 очень
душно
1012.9 1009.1
21 14.09 Ю 1 1500 м дымка 5/4 400 м
[Sc]
+22.6 +22.3 98 +30 +30 очень
душно
1012.4 1008.7
00 15.09 З 1 400 м дым {туман} ?/? +23.8 +22.7 94 +31 +31 очень
душно
1011.3 1011.1 +21.5
03 15.09 СВ 2 200 м дым {туман} ?/? +27.1 +23.1 79 +36 +36 очень
душно
1013.4 1010.3
06 15.09 СЗ 2 300 м дым {туман} ?/? +30.8 +23.7 66 +42 +42 опасность
перегрева
1010.8 1007.1
09 15.09 СВ 1 300 м дым {туман} ?/? +30.3 +21.2 58 +38 +38 очень
душно
1009.8 1006.1
12 15.09 Ю 3 1700 м дым {туман} ?/? +26.8 +22.3 76 +35 +35 очень
душно
1011.7 1008.5 +31.9
15 15.09 Ю 2 3000 м ?/? +25.9 +22.7 83 +34 +34 очень
душно
1013.5 1010.3
18 15.09 ЮЗ 2 2500 м дым {туман} ?/? +24.7 +22.7 89 +33 +33 очень
душно
1013.7 1010.5
21 15.09 Ю 1 1500 м ?/? +23.9 +22.4 91 +31 +31 очень
душно
1012.6 1009.5

 

Местоположение метеостанции Паоанкарая (Индонезия): широта -1.00 долгота 114.00 высота над уровнем моря 27 м.

В архиве по умолчанию представлена погода в Паоанкарая за последнюю неделю. Архивные данные за месяц целиком и за предыдущие месяцы, начиная с января 2011 года, Вы можете получить, выбрав интересующий диапазон дат из раскрывающегося списка и нажав кнопку "Ввод!".


*Определитесь, кто Вы:
робот инопланетянин человек

Внимание! Время в таблицах - всемирное. Для получения местного времени необходимо прибавить поправку, которая равна 7 ч.

Смотрите также архив погоды в соседних городах и на ближайших метеорологических станциях:

Погода в Муаратевехе (Индонезия) (100 км)
Погода на Путусиббау (Индонезия) (236 км)
Погода в Нангапинохе (Индонезия) (257 км)
Погода в Банджармасине (Индонезия) (283 км)
Погода в Синтанге (Индонезия) (302 км)
Погода в Пангкалан-Буне (Индонезия) (318 км)
Погода в Баликпапане (Индонезия) (324 км)
Погода в Самаринде (Индонезия) (353 км)
Погода в Котабару (Индонезия) (363 км)
Погода в Сибу (Малайзия) (442 км)

Пояснения к столбцам:

Ветер - указаны скорость ветра в м/с - средняя за 10 мин, порывы в срок и между сроками (в фигурных скобках) и направление, откуда дует ветер: С - северный, СВ - северо-восточный, В - восточный, ЮВ - юго-восточный, Ю - южный, ЮЗ - юго-западный, З - западный, СЗ - северо-западный.
Видимость - горизонтальная дальность видимости в метрах или километрах. При видимости от 1 до 10 км при отсутствии осадков обычно наблюдается дымка, при ухудшении видимости до 1 км и менее - туман. В сухую погоду видимость может ухудшаться дымом, пылью или мглою.
Явления - указаны атмосферные явления, наблюдавшиеся в срок или в последний час перед сроком; фигурными скобками обозначены явления, наблюдавшиеся между сроками (за 1-3 часа до срока); квадратными скобками обозначены град или гололедные отложения с указанием их диаметра в мм.
Облачность - указаны через наклонную черту общая и нижняя облачность в баллах и высота нижней границы облаков в метрах; квадратными скобками обозначены формы облаков: Ci - перистые, Cs - перисто-слоистые, Cc - перисто-кучевые, Ac - высококучевые, As - высокослоистые, Sc - слоисто-кучевые, Ns - слоисто-дождевые, Cu - кучевые, Cb - кучево-дождевые. Подробнее классификацию облаков см. в Атласе облаков (PDF).
T - Температура воздуха - температура, измеренная на высоте 2 м над землей.
Td - Температура точки росы - температура, при понижении до которой содержащийся в воздухе водяной пар достигнет насыщения.
f - Относительная влажность воздуха - влажноcть воздуха, измеренная на высоте 2 м над землей.
Te - Эффективная температура - температура, которую ощущает одетый по сезону человек в тени. Характеристика душности погоды. При расчете учитывается влияние влажности воздуха и скорости ветра на теплоощущения человека.
Tes - Эффективная температура на солнце - температура, которую ощущает человек, с поправкой на солнечный нагрев. Характеристика знойности погоды. Зависит от высоты солнца над горизонтом, облачности и скорости ветра. Ночью, в пасмурную погоду, а также при ветре 12 м/с и более поправка равна нулю.
P - Атмосферное давление - приведенное к уровню моря атмосферное давление.
Po - Атмосферное давление - измеренное на уровне метеостанции атмосферное давление.
Tmin - Минимальная температура - минимум температуры воздуха на высоте 2 м над землей.
Tmax - Максимальная температура - максимум температуры воздуха на высоте 2 м над землей.
R - Количество осадков - Количество выпавших осадков за период времени, мм. При наведении курсора мыши на число - период времени, за который выпало указанное количество осадков.
R24 - Количество осадков - Количество выпавших осадков за 24 часа, мм.
S - Снежный покров - Высота снежного покрова, см. При наведении курсора мыши на число - состояние снежного покрова и степень покрытия местности в баллах.